#timestamp,LO_Frequency,Hit,Temp,Hum 
1480500015.6,286046852.7,N,0.0,0.0
1480500035.5,286046853.9,N,0.0,0.0
1480500055.3,286046853.9,N,0.0,0.0
1480500075.1,286046851.0,N,0.0,0.0
1480500095.9,286046853.5,N,0.0,0.0
1480500115.7,286046851.0,N,0.0,0.0
1480500135.6,286046851.2,N,0.0,0.0
1480500155.4,286046851.8,N,0.0,0.0
1480500175.2,286046851.7,N,0.0,0.0
1480500195.1,286046849.3,N,0.0,0.0
1480500196.0,286046849.3,N,0.0,0.0
1480500215.8,286046850.1,N,0.0,0.0
1480500235.7,286046850.3,N,0.0,0.0
1480500255.5,286046850.4,N,0.0,0.0
1480500275.3,286046848.3,N,0.0,0.0
1480500295.2,286046849.0,N,0.0,0.0
1480500315.0,286046848.1,N,0.0,0.0
1480500315.9,286046848.1,N,0.0,0.0
1480500335.8,286046850.5,N,0.0,0.0
1480500355.6,286046850.3,N,0.0,0.0
1480500375.4,286046850.7,N,0.0,0.0
1480500395.3,286046850.4,N,0.0,0.0
1480500415.1,286046849.5,N,0.0,0.0
1480500435.8,286046850.1,N,0.0,0.0
1480500455.7,286046850.5,N,0.0,0.0
1480500475.5,286046850.3,N,0.0,0.0
1480500495.4,286046852.1,N,0.0,0.0
1480500515.2,286046852.1,N,0.0,0.0
1480500535.0,286046851.6,N,0.0,0.0
1480500535.9,286046851.6,N,0.0,0.0
1480500555.8,286046852.0,N,0.0,0.0
1480500575.6,286046851.8,N,0.0,0.0
1480500595.4,286046852.2,N,0.0,0.0
1480500615.3,286046852.0,N,0.0,0.0
1480500635.1,286046852.4,N,0.0,0.0
1480500655.9,286046852.0,N,0.0,0.0
1480500675.7,286046849.9,N,0.0,0.0
1480500695.5,286046850.2,N,0.0,0.0
1480500715.4,286046850.4,N,0.0,0.0
1480500735.2,286046850.1,N,0.0,0.0
1480500755.1,286046847.9,N,0.0,0.0
1480500756.0,286046847.9,N,0.0,0.0
1480500775.8,286046849.0,N,0.0,0.0
1480500795.6,286046848.3,N,0.0,0.0
1480500815.5,286046848.0,N,0.0,0.0
1480500835.3,286046848.5,N,0.0,0.0
1480500855.2,286046848.4,N,0.0,0.0
1480500875.9,286046848.1,N,0.0,0.0
1480500895.7,286046848.0,N,0.0,0.0
1480500915.6,286046849.1,N,0.0,0.0
1480500935.4,286046848.5,N,0.0,0.0
1480500955.2,286046848.3,N,0.0,0.0
1480500975.1,286046850.1,N,0.0,0.0
1480500976.0,286046850.1,N,0.0,0.0
1480500995.8,286046850.7,N,0.0,0.0
1480501015.7,286046850.8,N,0.0,0.0
1480501035.5,286046850.6,N,0.0,0.0
1480501055.3,286046850.4,N,0.0,0.0
1480501075.2,286046848.2,N,0.0,0.0
1480501095.0,286046849.0,N,0.0,0.0
1480501095.9,286046849.0,N,0.0,0.0
1480501115.8,286046849.1,N,0.0,0.0
1480501135.6,286046848.4,N,0.0,0.0
1480501155.4,286046848.5,N,0.0,0.0
1480501175.3,286046846.1,N,0.0,0.0
1480501195.1,286046846.6,N,0.0,0.0
1480501215.9,286046848.8,N,0.0,0.0
1480501235.7,286046846.4,N,0.0,0.0
1480501255.5,286046846.5,N,0.0,0.0
1480501275.4,286046847.1,N,0.0,0.0
1480501295.2,286046847.0,N,0.0,0.0
1480501315.0,286046847.5,N,0.0,0.0
1480501316.0,286046847.5,N,0.0,0.0
1480501335.8,286046844.5,N,0.0,0.0
1480501355.6,286046847.4,N,0.0,0.0
1480501375.5,286046846.6,N,0.0,0.0
1480501395.3,286046846.8,N,0.0,0.0
1480501415.1,286046848.8,N,0.0,0.0
1480501435.9,286046847.8,N,0.0,0.0
1480501455.7,286046850.7,N,0.0,0.0
1480501475.6,286046848.7,N,0.0,0.0
1480501495.4,286046846.2,N,0.0,0.0
1480501515.2,286046847.1,N,0.0,0.0
1480501535.1,286046846.6,N,0.0,0.0
1480501536.0,286046846.6,N,0.0,0.0
1480501555.8,286046847.2,N,0.0,0.0
1480501575.7,286046844.6,N,0.0,0.0
1480501595.5,286046844.7,N,0.0,0.0
1480501615.3,286046847.4,N,0.0,0.0
1480501635.2,286046847.5,N,0.0,0.0
1480501655.0,286046846.7,N,0.0,0.0
1480501655.9,286046846.7,N,0.0,0.0
1480501675.8,286046849.2,N,0.0,0.0
1480501695.6,286046848.8,N,0.0,0.0
1480501715.4,286046847.0,N,0.0,0.0
1480501735.3,286046847.3,N,0.0,0.0
1480501755.1,286046847.6,N,0.0,0.0
1480501775.8,286046847.0,N,0.0,0.0
1480501795.7,286046845.0,N,0.0,0.0
1480501815.5,286046844.7,N,0.0,0.0
1480501835.4,286046844.7,N,0.0,0.0
1480501855.2,286046847.4,N,0.0,0.0
1480501875.0,286046844.8,N,0.0,0.0
1480501875.9,286046844.8,N,0.0,0.0
1480501895.8,286046844.7,N,0.0,0.0
1480501915.6,286046845.1,N,0.0,0.0
1480501935.5,286046845.3,N,0.0,0.0
1480501955.3,286046845.7,N,0.0,0.0
1480501975.1,286046844.5,N,0.0,0.0
1480501995.9,286046844.9,N,0.0,0.0
1480502015.7,286046844.5,N,0.0,0.0
1480502035.6,286046844.9,N,0.0,0.0
1480502055.4,286046844.5,N,0.0,0.0
1480502075.2,286046844.9,N,0.0,0.0
1480502095.1,286046844.5,N,0.0,0.0
1480502096.0,286046844.5,N,0.0,0.0
1480502115.8,286046844.7,N,0.0,0.0
1480502135.7,286046845.2,N,0.0,0.0
1480502155.5,286046845.2,N,0.0,0.0
1480502175.3,286046844.6,N,0.0,0.0
1480502195.2,286046845.6,N,0.0,0.0
1480502215.0,286046845.1,N,0.0,0.0
1480502215.9,286046845.1,N,0.0,0.0
1480502235.7,286046845.2,N,0.0,0.0
1480502255.6,286046847.4,N,0.0,0.0
1480502275.4,286046844.5,N,0.0,0.0
1480502295.3,286046847.5,N,0.0,0.0
1480502315.1,286046844.7,N,0.0,0.0
1480502335.8,286046847.1,N,0.0,0.0
1480502355.7,286046845.2,N,0.0,0.0
1480502375.5,286046844.7,N,0.0,0.0
1480502395.4,286046845.9,N,0.0,0.0
1480502415.2,286046846.0,N,0.0,0.0
1480502435.0,286046843.6,N,0.0,0.0
1480502435.9,286046843.6,N,0.0,0.0
1480502455.8,286046844.0,N,0.0,0.0
1480502475.6,286046843.9,N,0.0,0.0
1480502495.5,286046844.2,N,0.0,0.0
1480502515.3,286046843.9,N,0.0,0.0
1480502535.1,286046843.5,N,0.0,0.0
1480502555.9,286046843.8,N,0.0,0.0
1480502575.7,286046844.4,N,0.0,0.0
1480502595.5,286046842.0,N,0.0,0.0
1480502615.4,286046844.4,N,0.0,0.0
1480502635.2,286046841.8,N,0.0,0.0
1480502655.1,286046844.3,N,0.0,0.0
1480502656.0,286046844.3,N,0.0,0.0
1480502675.8,286046843.0,N,0.0,0.0
1480502695.6,286046843.2,N,0.0,0.0
1480502715.5,286046843.8,N,0.0,0.0
1480502735.3,286046843.1,N,0.0,0.0
1480502755.2,286046844.1,N,0.0,0.0
1480502775.9,286046843.9,N,0.0,0.0
1480502795.7,286046844.2,N,0.0,0.0
1480502815.6,286046844.1,N,0.0,0.0
1480502835.4,286046841.8,N,0.0,0.0
1480502855.2,286046841.5,N,0.0,0.0
1480502875.1,286046843.6,N,0.0,0.0
1480502876.0,286046843.6,N,0.0,0.0
1480502895.8,286046845.6,N,0.0,0.0
1480502915.7,286046842.9,N,0.0,0.0
1480502935.5,286046843.3,N,0.0,0.0
1480502955.3,286046843.7,N,0.0,0.0
1480502975.2,286046843.6,N,0.0,0.0
1480502995.0,286046844.2,N,0.0,0.0
1480502995.9,286046844.2,N,0.0,0.0
1480503015.8,286046844.1,N,0.0,0.0
1480503035.6,286046844.0,N,0.0,0.0
1480503055.4,286046843.7,N,0.0,0.0
1480503075.3,286046843.8,N,0.0,0.0
1480503095.1,286046844.1,N,0.0,0.0
1480503115.9,286046843.9,N,0.0,0.0
1480503135.7,286046841.4,N,0.0,0.0
1480503155.5,286046842.3,N,0.0,0.0
1480503175.4,286046841.4,N,0.0,0.0
1480503195.2,286046841.4,N,0.0,0.0
1480503215.1,286046841.4,N,0.0,0.0
1480503216.0,286046841.4,N,0.0,0.0
1480503235.8,286046842.1,N,0.0,0.0
1480503255.6,286046841.6,N,0.0,0.0
1480503275.5,286046841.6,N,0.0,0.0
1480503295.3,286046841.4,N,0.0,0.0
1480503315.1,286046843.5,N,0.0,0.0
1480503335.9,286046841.3,N,0.0,0.0
1480503355.7,286046842.4,N,0.0,0.0
1480503375.6,286046840.3,N,0.0,0.0
1480503395.4,286046840.0,N,0.0,0.0
1480503415.2,286046839.9,N,0.0,0.0
1480503435.1,286046839.7,N,0.0,0.0
1480503436.0,286046839.7,N,0.0,0.0
1480503455.8,286046841.5,N,0.0,0.0
1480503475.7,286046841.3,N,0.0,0.0
1480503495.5,286046843.4,N,0.0,0.0
1480503515.3,286046843.2,N,0.0,0.0
1480503535.2,286046844.2,N,0.0,0.0
1480503555.0,286046841.9,N,0.0,0.0
1480503555.9,286046841.9,N,0.0,0.0
1480503575.8,286046841.7,N,0.0,0.0
1480503595.6,286046841.8,N,0.0,0.0
